Weather History for Columbia, MO

Change the Weather History Date:

Sunday, December 11, 2011

  Actual Average Record
Temperature  
Mean Temperature 37 °F 33 °F  
Max Temperature 49 °F 42 °F 73 °F (1949)
Min Temperature 24 °F 25 °F -3 °F (1917)
Degree Days  
Heating Degree Days 28 32  
Month to date heating degree days 334 329  
Since 1 July heating degree days 1209 1314  
Cooling Degree Days 0 0  
Month to date cooling degree days 0 0  
Year to date cooling degree days 1508 1249  
Moisture  
Dew Point 26 °F    
Average Humidity 71    
Maximum Humidity 88    
Minimum Humidity 54    
Precipitation  
Precipitation 0.00 in 0.08 in 0.77 in (1960)
Month to date precipitation 0.72 0.99  
Year to date precipitation 36.89 41.17  
Snow  
Snow 0.00 in 0.20 in 3.90 in (1963)
Month to date snowfall 1.3 1.3  
Since 1 July snowfall 1.3 2.2  
Snow Depth 0.00 in    
Sea Level Pressure  
Sea Level Pressure 30.40 in    
Wind  
Wind Speed 8 mph (South)    
Max Wind Speed 12 mph    
Max Gust Speed 15 mph    
Visibility 10 miles    
Events      
T = Trace of Precipitation, MM = Missing Value Source: NWS Daily Summary

Daily Weather History Graph

Daily Weather History Graph

Search for Another Location

Airport:

Trip Planner

Search our weather history database for the weather conditions in past years. The results will help you decide how hot, cold, wet, or windy it might be!

Date:

Astronomy

Dec. 11, 2011 Rise Set
Actual Time 7:16 AM CST 4:47 PM CST
Civil Twilight 6:47 AM CST 5:16 PM CST
Nautical Twilight 6:13 AM CST 5:50 PM CST
Astronomical Twilight 5:41 AM CST 6:22 PM CST
Moon 5:57 PM CST (12/11) 8:05 AM CST (12/11)
Length of Visible Light 10h 29m
Length of Day
9h 30m
Full, 99% of the Moon is Illuminated
Dec 11
Full
Dec 17
Last Quarter
Dec 24
New
Jan 1
First Quarter
Jan 9
Full

Hourly Weather History & Observations

Time (CST) Temp. Windchill Dew Point Humidity Pressure Visibility Wind Dir Wind Speed Gust Speed Precip Events Conditions
12:54 AM 26.1 °F 18.4 °F 21.0 °F 81% 30.45 in 10.0 mi South 6.9 mph - N/A   Clear
1:54 AM 26.1 °F 17.6 °F 21.0 °F 81% 30.45 in 10.0 mi South 8.1 mph - N/A   Clear
2:54 AM 25.0 °F 16.3 °F 21.0 °F 85% 30.45 in 10.0 mi South 8.1 mph - N/A   Clear
3:54 AM 24.1 °F 14.4 °F 21.0 °F 88% 30.45 in 10.0 mi South 9.2 mph - N/A   Clear
4:54 AM 25.0 °F 17.1 °F 21.0 °F 85% 30.45 in 10.0 mi SSE 6.9 mph - N/A   Clear
5:54 AM 24.1 °F 16.0 °F 21.0 °F 88% 30.45 in 10.0 mi South 6.9 mph - N/A   Clear
6:54 AM 25.0 °F 16.3 °F 21.9 °F 88% 30.47 in 10.0 mi South 8.1 mph - N/A   Clear
7:54 AM 26.1 °F 17.6 °F 21.9 °F 84% 30.47 in 10.0 mi SSE 8.1 mph - N/A   Clear
8:54 AM 30.9 °F 23.5 °F 26.1 °F 82% 30.47 in 10.0 mi South 8.1 mph - N/A   Clear
9:54 AM 35.1 °F 28.6 °F 28.0 °F 76% 30.47 in 10.0 mi South 8.1 mph - N/A   Clear
10:54 AM 39.2 °F 34.2 °F 28.4 °F 65% 30.44 in 10.0 mi South 6.9 mph - N/A   Clear
11:54 AM 45.0 °F 40.6 °F 30.0 °F 56% 30.43 in 10.0 mi SSW 8.1 mph - N/A   Clear
12:54 PM 46.4 °F 41.5 °F 32.0 °F 57% 30.37 in 10.0 mi SSW 10.4 mph - N/A   Clear
1:54 PM 48.0 °F - 32.0 °F 54% 30.38 in 10.0 mi SSW 8.1 mph - N/A   Clear
2:54 PM 48.0 °F - 32.0 °F 54% 30.36 in 10.0 mi SSE 10.4 mph - N/A   Clear
3:54 PM 46.9 °F - 32.0 °F 56% 30.35 in 10.0 mi SSE 8.1 mph - N/A   Clear
4:54 PM 42.1 °F 36.6 °F 30.9 °F 65% 30.34 in 10.0 mi SSE 9.2 mph - 0.01 in   Clear
5:54 PM 39.9 °F 33.4 °F 30.0 °F 68% 30.34 in 10.0 mi SSE 10.4 mph - 0.02 in   Clear
6:54 PM 37.0 °F 31.0 °F 28.9 °F 73% 30.34 in 10.0 mi SSE 8.1 mph - 0.02 in   Clear
7:54 PM 36.0 °F 29.0 °F 28.0 °F 73% 30.35 in 10.0 mi SSE 9.2 mph - 0.01 in   Clear
8:54 PM 35.1 °F 28.6 °F 27.0 °F 72% 30.35 in 10.0 mi SSE 8.1 mph - N/A   Clear
9:54 PM 34.0 °F 27.2 °F 26.1 °F 73% 30.34 in 10.0 mi South 8.1 mph - 0.01 in   Clear
10:54 PM 33.8 °F 25.8 °F 24.8 °F 70% 30.32 in 10.0 mi SSE 10.4 mph - N/A   Clear
11:54 PM 32.0 °F 24.2 °F 25.0 °F 75% 30.34 in 10.0 mi SSE 9.2 mph - N/A   Clear